Breckenridge, TX

3:24 AM CDT on May 22, 2018 (GMT -0500)
Stephens County

Weather History for KBKD - April, 2013

Change the Weather History Date:

Tuesday, April 30, 2013

  Actual Average (KMWL) Record (KMWL)
Temperature  
Mean Temperature 76 °F -  
Max Temperature 89 °F 79 °F 91 °F (2002)
Min Temperature 62 °F 56 °F 44 °F (2017)
Cooling Degree Days 10    
Growing Degree Days 26 (Base 50)    
Moisture  
Dew Point 57 °F    
Average Humidity 59    
Maximum Humidity 94    
Minimum Humidity 27    
Precipitation  
Precipitation 0.00 in - - ()
Sea Level Pressure  
Sea Level Pressure 29.76 in    
Wind  
Wind Speed 13 mph (South)    
Max Wind Speed 18 mph    
Max Gust Speed 28 mph    
Visibility 10 miles    
Events      
Averages and records for this station are not official NWS values.
T = Trace of Precipitation, MM = Missing Value Source: NWS Daily Summary

Daily Weather History Graph

Daily Weather History Graph

Search for Another Location

Airport or City:

Astronomy

Apr. 30, 2013 Rise Set
Actual Time 6:49 AM CDT 8:16 PM CDT
Civil Twilight 6:23 AM CDT 8:42 PM CDT
Nautical Twilight 5:51 AM CDT 9:14 PM CDT
Astronomical Twilight 5:19 AM CDT 9:47 PM CDT
Moon 12:37 AM CDT (4/30) 11:22 AM CDT (4/30)
Length of Visible Light 14h 19m
Length of Day
13h 27m
Waning Gibbous, 70% of the Moon is Illuminated
Apr 30
Waning Gibbous
May 2
Last Quarter
May 9
New
May 17
First Quarter
May 24
Full

Hourly Weather History & Observations

Time (CDT) Temp. Heat Index Dew Point Humidity Pressure Visibility Wind Dir Wind Speed Gust Speed Precip Events Conditions
12:16 AM 71.6 °F - 59.0 °F 64% 29.79 in 10.0 mi SSE 17.3 mph 24.2 mph N/A   Clear
12:34 AM 71.6 °F - 57.2 °F 60% 29.79 in 10.0 mi South 16.1 mph 27.6 mph N/A   Clear
12:57 AM 71.6 °F - 57.2 °F 60% 29.79 in 10.0 mi South 15.0 mph 23.0 mph N/A   Clear
1:34 AM 69.8 °F - 57.2 °F 64% 29.79 in 10.0 mi South 13.8 mph - N/A   Clear
1:58 AM 68.0 °F - 57.2 °F 68% 29.78 in 10.0 mi South 12.7 mph - N/A   Clear
2:18 AM 68.0 °F - 57.2 °F 68% 29.78 in 10.0 mi South 13.8 mph 18.4 mph N/A   Clear
2:34 AM 66.2 °F - 57.2 °F 73% 29.77 in 10.0 mi South 12.7 mph - N/A   Clear
2:56 AM 66.2 °F - 57.2 °F 73% 29.77 in 10.0 mi South 13.8 mph - N/A   Clear
3:14 AM 66.2 °F - 57.2 °F 73% 29.77 in 10.0 mi South 10.4 mph - N/A   Clear
3:36 AM 64.4 °F - 57.2 °F 77% 29.77 in 10.0 mi South 11.5 mph - N/A   Clear
3:54 AM 64.4 °F - 57.2 °F 77% 29.77 in 10.0 mi South 10.4 mph 16.1 mph N/A   Clear
4:16 AM 64.4 °F - 57.2 °F 77% 29.76 in 10.0 mi South 11.5 mph - N/A   Clear
4:38 AM 64.4 °F - 57.2 °F 77% 29.77 in 10.0 mi South 10.4 mph - N/A   Clear
4:56 AM 64.4 °F - 57.2 °F 77% 29.77 in 10.0 mi South 9.2 mph - N/A   Clear
5:37 AM 64.4 °F - 57.2 °F 77% 29.77 in 10.0 mi South 9.2 mph - N/A   Clear
5:54 AM 64.4 °F - 57.2 °F 77% 29.77 in 10.0 mi South 8.1 mph - N/A   Clear
6:18 AM 62.6 °F - 59.0 °F 88% 29.78 in 10.0 mi SSE 8.1 mph - N/A   Clear
6:34 AM 62.6 °F - 60.8 °F 94% 29.78 in 10.0 mi South 9.2 mph - N/A   Clear
6:54 AM 62.6 °F - 60.8 °F 94% 29.79 in 10.0 mi South 10.4 mph 16.1 mph N/A   Clear
7:14 AM 62.6 °F - 60.8 °F 94% 29.79 in 10.0 mi South 11.5 mph 16.1 mph N/A   Clear
7:54 AM 62.6 °F - 60.8 °F 94% 29.79 in 10.0 mi South 11.5 mph - N/A   Scattered Clouds
8:56 AM 68.0 °F - 59.0 °F 73% 29.79 in 10.0 mi South 12.7 mph - N/A   Clear
9:18 AM 69.8 °F - 59.0 °F 68% 29.79 in 10.0 mi South 12.7 mph - N/A   Clear
9:34 AM 69.8 °F - 59.0 °F 68% 29.79 in 10.0 mi South 10.4 mph - N/A   Clear
9:58 AM 71.6 °F - 60.8 °F 69% 29.79 in 10.0 mi South 12.7 mph - N/A   Clear
10:14 AM 73.4 °F - 60.8 °F 65% 29.79 in 10.0 mi South 10.4 mph 16.1 mph N/A   Clear
10:34 AM 75.2 °F - 60.8 °F 61% 29.78 in 10.0 mi South 13.8 mph 18.4 mph N/A   Clear
10:54 AM 77.0 °F - 60.8 °F 57% 29.78 in 10.0 mi South 10.4 mph - N/A   Clear
11:17 AM 78.8 °F - 60.8 °F 54% 29.77 in 10.0 mi South 8.1 mph 16.1 mph N/A   Clear
11:36 AM 80.6 °F 81.1 °F 59.0 °F 48% 29.77 in 10.0 mi South 12.7 mph 17.3 mph N/A   Clear
11:56 AM 82.4 °F 82.9 °F 60.8 °F 48% 29.77 in 10.0 mi South 11.5 mph - N/A   Clear
12:54 PM 84.2 °F 83.0 °F 55.4 °F 37% 29.75 in 10.0 mi SSE 11.5 mph 18.4 mph N/A   Clear
1:17 PM 84.2 °F 83.0 °F 55.4 °F 37% 29.75 in 10.0 mi SSE 16.1 mph 21.9 mph N/A   Clear
1:34 PM 84.2 °F 83.5 °F 57.2 °F 40% 29.75 in 10.0 mi SSE 16.1 mph 25.3 mph N/A   Clear
1:56 PM 84.2 °F 83.0 °F 55.4 °F 37% 29.74 in 10.0 mi SSE 15.0 mph 20.7 mph N/A   Clear
2:16 PM 86.0 °F 84.5 °F 55.4 °F 35% 29.73 in 10.0 mi SSE 16.1 mph 24.2 mph N/A   Clear
2:35 PM 87.8 °F - 51.8 °F 29% 29.73 in 10.0 mi SSE 18.4 mph 24.2 mph N/A   Clear
2:54 PM 87.8 °F - 51.8 °F 29% 29.72 in 10.0 mi SSE 12.7 mph 21.9 mph N/A   Clear
3:56 PM 87.8 °F 85.7 °F 53.6 °F 31% 29.70 in 10.0 mi SSE 15.0 mph 26.5 mph N/A   Clear
4:14 PM 87.8 °F 85.7 °F 53.6 °F 31% 29.69 in 10.0 mi SSE 13.8 mph 23.0 mph N/A   Clear
4:54 PM 89.6 °F - 51.8 °F 27% 29.68 in 10.0 mi SE 13.8 mph 25.3 mph N/A   Clear
5:34 PM 87.8 °F 85.7 °F 53.6 °F 31% 29.68 in 10.0 mi SSE 16.1 mph 24.2 mph N/A   Clear
7:14 PM 84.2 °F 83.5 °F 57.2 °F 40% 29.69 in 10.0 mi SE 17.3 mph 24.2 mph N/A   Clear
7:34 PM 82.4 °F 82.0 °F 57.2 °F 42% 29.69 in 10.0 mi SE 15.0 mph 24.2 mph N/A   Clear
8:34 PM 80.6 °F 80.5 °F 55.4 °F 42% 29.70 in 10.0 mi SE 10.4 mph 17.3 mph N/A   Clear
8:57 PM 78.8 °F - 55.4 °F 44% 29.71 in 10.0 mi SE 10.4 mph - N/A   Clear
9:34 PM 77.0 °F - 57.2 °F 50% 29.73 in 10.0 mi SE 13.8 mph 21.9 mph N/A   Clear
9:54 PM 77.0 °F - 57.2 °F 50% 29.74 in 10.0 mi SE 15.0 mph 19.6 mph N/A   Clear
10:14 PM 75.2 °F - 57.2 °F 53% 29.76 in 10.0 mi SE 13.8 mph - N/A   Clear
10:34 PM 75.2 °F - 57.2 °F 53% 29.76 in 10.0 mi SE 12.7 mph 20.7 mph N/A   Clear
10:54 PM 75.2 °F - 57.2 °F 53% 29.79 in 10.0 mi SSE 13.8 mph 18.4 mph N/A   Clear
11:14 PM 73.4 °F - 57.2 °F 57% 29.79 in 10.0 mi SE 15.0 mph 18.4 mph N/A   Clear
11:34 PM 73.4 °F - 57.2 °F 57% 29.83 in 10.0 mi SSW 6.9 mph - N/A   Scattered Clouds
11:54 PM 73.4 °F - 57.2 °F 57% 29.82 in 10.0 mi South 9.2 mph - N/A   Scattered Clouds